Regional Weather Roundup
Issued by NWS

Home | Current Version | Previous Version | Text Only | Print | Product List | Glossary On
Versions: 1 2 3 4 5 6 7 8 9 10 11 12 13 14 15 16 17 18 19 20 21 22 23 24 25 26 27 28 29 30 31 32 33 34 35 36 37 38 39 40 41 42 43 44 45 46 47 48 49 50
000
ASUS46 KLOX 010502
RWRCA

SOUTHERN CALIFORNIA WEATHER ROUNDUP
NATIONAL WEATHER SERVICE OXNARD CALIFORNIA
1000 PM PDT THU JUL 31 2014

NOTE: "FAIR" INDICATES FEW OR NO CLOUDS BELOW 12,000 FEET WITH NO
SIGNIFICANT WEATHER AND/OR OBSTRUCTIONS TO VISIBILITY.

  -  STATIONS PRECEEDED BY AN ASTERISK (*) ARE NOT NWS OR FAA
     STATIONS AND ARE NOT SUBJECT TO NWS AND FAA QUALITY CONTROL.

CAZ041-042-087-010600-
LA AND ORANGE COUNTY COASTAL AREAS


CITY           SKY/WX    TMP DP  RH WIND       PRES   REMARKS
L.A. DOWNTOWN  CLEAR     69  61  75 VRB3      29.90R
L.A. AIRPORT   PTCLDY    67  61  81 W9        29.91R
LONG BEACH     CLEAR     70  62  76 NW3       29.90R

CITY           SKY/WX    TMP DP  RH WIND       PRES   REMARKS
AVALON           N/A     70 N/A N/A SW2         N/A
FULLERTON      CLEAR     74  59  59 SW3       29.89R
*GETTY CENTER    N/A    N/A N/A N/A E1          N/A
HAWTHORNE      PTCLDY    69  64  84 SW6       29.91R
*LEO CARRILLO    N/A     65  61  88 CALM        N/A
*LOS ALAMITOS  CLEAR     70  63  78 S5        29.91R
*REDONDO BEACH   N/A     68  64  86 W5        29.89R
SANTA ANA      PTCLDY    73  64  73 S7        29.91R
STA MONICA APT MOCLDY    67  62  84 CALM      29.90R
*UCLA            N/A     66  61  82 CALM      29.88R

$$

CAZ547-548-048-010600-
LA COUNTY VALLEYS AND INLAND EMPIRE


CITY           SKY/WX    TMP DP  RH WIND       PRES   REMARKS
BURBANK        CLEAR     73  59  61 E7        29.90R
VAN NUYS       CLEAR     77  58  51 E3        29.89R

CITY           SKY/WX    TMP DP  RH WIND       PRES   REMARKS
CORONA AIRPORT CLEAR     75  62  64 W7        29.90R
*CHATSWORTH      N/A     80  62  52 E1        29.84R
CHINO          CLEAR     75  62  64 W9        29.92R
MARCH AFB      CLEAR     80  60  50 W6        29.94R
*NORTHRIDGE      N/A     79  55  44 E2          N/A
ONTARIO        PTCLDY    79  59  50 W8        29.91R
*PASADENA        N/A    N/A N/A N/A CALM        N/A
RIVERSIDE      CLEAR     79  60  52 W5        29.91R
SAN BERNARDINO NOT AVBL
*SAN RAFAEL HI   N/A     72  55  54 SW7         N/A
*SAUGUS          N/A     78  58  49 SW3         N/A
*WHITEMAN AP   NOT AVBL
*WHITTIER HILL   N/A     69  61  75 SW3         N/A
*WOODLAND HILL   N/A     79  57  47 E2          N/A

$$

CAZ054-055-010600-
LA AND SAN BERNARDINO COUNTY MOUNTAINS


CITY           SKY/WX    TMP DP  RH WIND       PRES   REMARKS
*BIG BEAR AIRP CLEAR     63  39  42 CALM      30.33R
MT WILSON NWS    N/A     72  36  26 MISG        N/A
SANDBERG       CLEAR     81  43  26 NW12      30.15R

$$

CAZ028-029-059-060-099-010600-
ANTELOPE VALLEY AND SURROUNDING AREAS


CITY           SKY/WX    TMP DP  RH WIND       PRES   REMARKS
LANCASTER      CLEAR     86  47  25 SW8       29.97R
PALMDALE       CLEAR     86  42  21 W9        29.98R
*POPPY PARK      N/A     87  47  24 W12         N/A

CITY           SKY/WX    TMP DP  RH WIND       PRES   REMARKS
29 PALMS       PTCLDY    95  47  19 SW15      29.95R HX  91
BARSTOW/DAGGET CLEAR     96  42  15 W13       29.89R HX  92
BISHOP         PTCLDY    76  46  34 N5        30.08R
CHINA LAKE     CLEAR     94  45  18 S8        29.90R HX  90
EDWARDS AFB    CLEAR     88  46  23 SW9       29.94R
MOJAVE         FAIR      86  46  25 W16       29.98R
NEEDLES        MOCLDY   104  56  20 SW15      29.77R HX 103
VICTORVILLE    CLEAR     88  46  23 SW9       30.00R

$$

CAZ039-040-010600-
VENTURA AND SANTA BARBARA COUNTY COAST


CITY           SKY/WX    TMP DP  RH WIND       PRES   REMARKS
CAMARILLO      CLEAR     66  60  81 CALM      29.89R
NWS OXNARD       N/A     65  60  85 W1        29.89R
OXNARD AIRPORT CLOUDY    64  60  87 W8        29.89R
*POINT MUGU    MOCLDY    66  61  84 W6        29.90R
SBA APT/GOLETA CLEAR     67  61  81 SE6       29.87R
*SANTA BARBARA   N/A     68  60  76 CALM      29.95R
*VENTURA         N/A     66  61  84 CALM      29.93S

$$

CAZ044-045-010600-
VENTURA COUNTY VALLEYS


CITY           SKY/WX    TMP DP  RH WIND       PRES   REMARKS
*SIMI VALLEY     N/A     72  60  65 CALM      29.83S
*OJAI            N/A     72  61  67 CALM      29.81S
*FILLMORE        N/A     70  61  72 W5        29.80R

$$

CAZ053-010600-
VENTURA COUNTY MOUNTAINS


CITY           SKY/WX    TMP DP  RH WIND       PRES   REMARKS
*LOCKWOOD VLY    N/A     64  43  45 MISG        N/A
*ROSE VALLEY     N/A     73  50  43 MISG        N/A

$$

CAZ034-035-036-010600-
CENTRAL COAST AND SANTA YNEZ VALLEY


CITY           SKY/WX    TMP DP  RH WIND       PRES   REMARKS
SAN LUIS OBISP CLEAR     61  58  90 NW6       29.93S
SANTA MARIA    CLOUDY    63  58  83 N3        29.94S

CITY           SKY/WX    TMP DP  RH WIND       PRES   REMARKS
*CAL POLY SLO    N/A     63  59  88 S3G12       N/A
*LOMPOC        CLOUDY    63  55  77 MISG      29.95R
*PISMO BEACH     N/A     63  60  90 CALM      29.93S

$$

CAZ037-038-051-010600-
SAN LUIS OBISPO COUNTY INTERIOR AND CUYAMA VALLEY


CITY           SKY/WX    TMP DP  RH WIND       PRES   REMARKS
*CUYAMA          N/A     82  52  35 W5        29.82R
PASO ROBLES    CLEAR     81  42  25 NW15      29.90R

$$

CAZ032-033-061-010600-
SOUTHERN DESERTS


CITY           SKY/WX    TMP DP  RH WIND       PRES   REMARKS
BLYTHE           N/A    N/A N/A N/A MISG      29.77R
IMPERIAL       MOCLDY    96  71  44 SE6       29.73R HX 103
PALM SPRINGS   CLEAR    103  49  16 NW13      29.79R HX  99
THERMAL        CLEAR     98  67  36 SE9       29.72R HX 102

$$

ELSEWHERE ACROSS THE WESTERN UNITED STATES AND MEXICO


CITY           SKY/WX    TMP DP  RH WIND       PRES   REMARKS
DENVER, CO     PTCLDY    65  50  58 SW9       30.28R
GRAND CANYON,  MOCLDY    56  52  86 NE3       30.33R
HONOLULU, HI   PTCLDY    82  66  58 E14G21    29.96R
KAHULUI, MAUI  PTCLDY    80  68  66 NE17G25   29.95R
LAKE TAHOE, CA PTCLDY    65  48  54 CALM      30.29R
LAS VEGAS, NV  MOCLDY    99  43  14 SW10      29.83R HX  95
MAMMOTH LAKES, FAIR      59  43  55 CALM      30.35R
MEXICO CITY, M MOCLDY    66  52  59 NW7       30.37R
PHOENIX, AZ    MOCLDY    99  52  20 SE6       29.85R HX  96
PORTLAND, OR   PTCLDY    79  55  43 NW14      29.95R
RENO, NV       PTCLDY    80  45  28 N7        30.14R
SALT LAKE CITY MOCLDY    73  53  49 SE3       30.13R
SAN DIEGO, CA  MOCLDY    72  64  78 S3        29.95R
SAN FRANCISCO, PTCLDY    62  57  83 NW15      29.92R
SAN JOSE, CA   PTCLDY    67  60  78 NW7       29.92R
SEATTLE, WA    CLEAR     76  48  37 NE7       30.04S
TIJUANA, MEX   CLEAR     68  63  83 NW6       29.97R

$$

STATION/POSITION TIME  TEMP    WIND        PRES    VSBY  WAVE
                       AIR SEA DIR/SP/G                  HT/PER
                 (UTC) (F)     (DEG/KT/KT) (MB)    (MI)  (FT/S)
POINT ARGUELLO B NOT AVBL
WEST SANTA BARBA 0400   61 61  310/ 17/ 23 1011.9R         5/ 8
POINT CONCEPTION NOT AVBL
EAST SANTA BARBA 0400   63 66  270/ 16/ 19 1011.2R
SANTA MONICA BAY 0400   67 68  270/ 14/ 17 1011.3R         5/ 6


USA.gov is the U.S. government's official web portal to all federal, state and local government web resources and services.